Flag for South Africa Weather past 2 weeks in Durban, South Africa

Now
54 °F

Sunny.


Feels Like: 53 °F
Forecast: 54 / 71 °F
Wind: 5 mph from Southwest

Location: King Shaka International Airport

Current Time: Jul 28, 2014 at 8:01:57 AM

Latest Report: Jul 28, 2014 at 7:00 AM


Visibility: 10 mi

Pressure: 30.42 "Hg

Humidity: 77%

Dew point: 46 °F

Location of DurbanLocation

Historic Weather in Durban — Graph

°F

Durban temperature yesterday

Maximum temperature yesterday: 72 °F (at 12:00 PM)
Minimum temperature yesterday: 48 °F (at 2:00 AM)
Average temperature yesterday: 59 °F

Past Weeks' High & Low Weather Summary

 TemperatureHumidityPressure
High81 °F (Jul 17, 11:00 AM)94% (Jul 15, 8:00 PM)30.45 "Hg (Jul 15, 8:00 PM)
Low43 °F (Jul 16, 7:00 AM)21% (Jul 17, 10:00 PM)29.65 "Hg (Jul 17, 4:00 PM)
Average61 °F70%30.13 "Hg
* Reported Jul 13 6:00 AM — Jul 28 6:00 AM, Durban, Weather by CustomWeather, © 2014

Note: Actual official high and low records may vary slightly from our data, if they occured in-between our weather recording intervals... More about our weather records

Advertising

Durban weather history for previous 24 hours

 ConditionsComfort  
Time TempWeatherWind HumidityBarometerVisibility
6:00 AM
Jul 28
54 °FPassing clouds.6 mph77%30.42 "HgN/A
5:00 AM52 °FClear.3 mph77%30.39 "Hg10 mi
4:00 AM55 °FClear.6 mph72%30.39 "Hg10 mi
3:00 AM54 °FPassing clouds.5 mph77%30.39 "HgN/A
2:00 AM55 °FPassing clouds.3 mph72%30.39 "HgN/A
1:00 AM55 °FPassing clouds.5 mph72%30.39 "HgN/A
12:00 AM55 °FPassing clouds.5 mph77%30.39 "HgN/A
11:00 PM
Jul 27
50 °FClear.2 mph82%30.39 "Hg10 mi
10:00 PM52 °FClear.1 mph82%30.39 "Hg10 mi
9:00 PM50 °FClear.1 mph82%30.39 "Hg10 mi
8:00 PM55 °FPassing clouds.3 mph77%30.36 "HgN/A
7:00 PM57 °FPassing clouds.2 mph67%30.36 "HgN/A
6:00 PM61 °FClear.2 mph63%30.33 "Hg10 mi
5:00 PM66 °FPassing clouds.6 mph52%30.33 "HgN/A
4:00 PM70 °FPassing clouds.7 mph43%30.30 "HgN/A
3:00 PM70 °FPassing clouds.8 mph40%30.30 "HgN/A
2:00 PM70 °FPassing clouds.10 mph38%30.30 "HgN/A
1:00 PM70 °FPassing clouds.13 mph35%30.30 "HgN/A
12:00 PM72 °FPassing clouds.17 mph33%30.33 "HgN/A
11:00 AM70 °FPassing clouds.8 mph50%30.33 "HgN/A
10:00 AM70 °FSunny.13 mph50%30.33 "Hg10 mi
9:00 AM64 °FSunny.8 mph60%30.30 "Hg10 mi
8:00 AM57 °FSunny.3 mph77%30.24 "Hg10 mi
Weather by CustomWeather, © 2014

See weather overviewHow to use our weather pages